Location: York
(31.8935°S, 116.7682°E)
Time: 14:40:45
(UTC+08:00)

Envisat - Pass Details

Date: 20 May 2021
Orbit: 764 x 766 km, 98.1° (Epoch: 18 June)

Event Time Altitude Azimuth Distance (km) Brightness Sun altitude
Rises 18:52:01 0° 190° (S) 3,264 6.2 -19.2°
Reaches altitude 10° 18:55:14 10° 211° (SSW) 2,329 5.7 -19.8°
Maximum altitude 18:58:10 16° 246° (WSW) 1,960 5.8 -20.5°
Drops below altitude 10° 19:01:06 10° 282° (WNW) 2,313 6.7 -21.1°
Sets 19:04:18 0° 303° (WNW) 3,230 7.4 -21.7°
